Weather observations for the past three days for
Santa Monica, Santa Monica Municipal Airport
Imperial (Metric)
Date Time (pdt) Wind (mph) Vis. (mi.) Weather Sky Cond. Temperature (ºF) Relative Humidity Wind Chill (°F) Heat Index (°F) Pressure Precipitation (in)
Air Dwpt 6 hour altimeter (in) sea level (mb) 1 hr 3 hr 6 hr
Max. Min.
15 22:51 Calm 10.00 Fair CLR 66 61 71.1 66 84% 29.99 1015.3
15 21:51 S 3 10.00 Fair CLR 68 61 78% 29.98 1014.8
15 20:51 SW 5 10.00 Fair CLR 66.9 60.1 79% 29.95 1014.0
15 19:51 W 8 10.00 Fair CLR 66.9 59 76% 29.93 1013.4
15 18:51 SW 8 10.00 Fair CLR 69.1 61 76% 29.93 1013.5
15 17:51 SW 13 G 18 10.00 Fair CLR 69.1 60.1 73% 29.94 1013.5
15 16:51 SW 12 G 20 10.00 Fair CLR 70 60.1 73.9 70 71% 29.95 1013.9
15 15:51 SW 10 G 20 10.00 Fair CLR 71.1 61 71% 29.95 1014.0
15 14:51 SW 13 G 21 10.00 A Few Clouds FEW010 72 62.1 71% 29.98 1014.9
15 13:51 SW 8 10.00 Fair CLR 73 62.1 69% 30 1015.6
15 12:51 SW 8 10.00 Fair CLR 72 62.1 71% 30.02 1016.2
15 11:51 SW 8 10.00 Fair CLR 72 62.1 71% 30.03 1016.8
15 10:51 S 8 10.00 Fair CLR 73 62.1 73 64.9 69% 30.05 1017.3
15 09:51 S 5 10.00 Overcast OVC011 70 62.1 76% 30.06 1017.9
15 08:51 Calm 9.00 Overcast OVC008 66.9 62.1 84% 30.07 1018.1
15 07:51 S 6 8.00 Overcast OVC007 66.9 62.1 84% 30.07 1018.0
15 06:51 SE 6 10.00 Overcast OVC008 66 62.1 87% 30.06 1017.6
15 05:51 S 5 10.00 Overcast OVC007 66 62.1 87% 30.04 1017.0
15 04:51 Calm 10.00 Mostly Cloudy BKN008 64.9 61 66 64.9 87% 30.04 1016.9
15 03:51 Calm 10.00 Overcast OVC008 64.9 61 87% 30.03 1016.6
15 02:51 Calm 10.00 Overcast OVC008 66 61 84% 30.03 1016.7
15 01:51 Calm 10.00 Overcast OVC007 66 61 84% 30.02 1016.5
15 00:51 Calm 10.00 Mostly Cloudy BKN007 66 61 84% 30.03 1016.7
14 23:51 S 6 10.00 Fair CLR 66 61 84% 30.03 1016.6
14 22:51 SW 3 10.00 Partly Cloudy SCT008 66 61 72 64.9 84% 30.03 1016.6
14 21:51 S 3 10.00 Mostly Cloudy BKN008 66 61 84% 30.04 1017.0
14 20:51 SW 7 10.00 Partly Cloudy SCT007 66 62.1 87% 30.01 1016.2
14 19:51 SW 6 10.00 A Few Clouds FEW008 66.9 61 81% 30.01 1016.0
14 17:51 SW 10 10.00 Fair CLR 70 62.1 76% 30 1015.9
14 16:51 SW 9 10.00 Fair CLR 71.1 62.1 75 71.1 73% 30.01 1016.1
14 15:51 SW 10 10.00 Fair CLR 72 62.1 71% 30.01 1016.1
14 14:51 SW 12 10.00 Fair CLR 73 63 71% 30.02 1016.4
14 13:51 SW 9 10.00 Fair CLR 73.9 63 69% 30.03 1016.6
14 12:51 SW 8 10.00 Fair CLR 73.9 63 69% 30.05 1017.2
14 11:51 SW 7 10.00 Fair CLR 73.9 63 69% 30.06 1017.8
14 10:51 SW 6 9.00 Fair CLR 73 63 73 64.9 71% 30.06 1017.7
14 09:51 Vrbl 3 8.00 Mostly Cloudy BKN012 71.1 63 76% 30.06 1017.8
14 08:51 Calm 7.00 Overcast OVC009 68 62.1 81% 30.08 1018.5
14 07:51 Calm 6.00 Fog/Mist OVC007 66 62.1 87% 30.07 1018.1
14 06:51 Calm 7.00 Overcast OVC006 66 62.1 87% 30.05 1017.3
14 05:51 Vrbl 3 8.00 Overcast OVC006 64.9 62.1 90% 30.03 1016.7
14 04:51 Vrbl 3 9.00 Overcast OVC006 64.9 62.1 69.1 64.9 90% 30.02 1016.3
14 03:51 SW 5 10.00 Overcast OVC006 66 62.1 87% 30 1015.7
14 02:51 Calm 10.00 Overcast OVC006 66 62.1 87% 29.99 1015.4
14 01:51 Calm 10.00 Overcast OVC006 66 62.1 87% 30 1015.5
14 00:51 Calm 10.00 Fair CLR 66 63 90% 29.99 1015.4
13 23:51 Calm 10.00 Fair CLR 66.9 63 87% 29.99 1015.2
13 22:51 SW 6 10.00 Fair CLR 66.9 63 72 66 87% 30 1015.5
13 21:51 Calm 10.00 Fair CLR 66.9 63 87% 29.99 1015.3
13 20:51 S 3 10.00 Partly Cloudy SCT007 68 63 84% 29.97 1014.7
13 19:51 Calm 10.00 Mostly Cloudy BKN007 66.9 63 87% 29.96 1014.4
13 18:51 SW 7 10.00 Overcast OVC007 68 63 84% 29.96 1014.4
13 17:51 SW 10 10.00 Overcast OVC008 69.1 63 81% 29.95 1013.8
13 16:51 SW 10 10.00 Partly Cloudy SCT009 72 63 75.9 71.1 73% 29.95 1013.9
13 15:51 SW 9 10.00 Mostly Cloudy BKN009 71.1 63 76% 29.95 1013.8
13 14:51 SW 13 10.00 A Few Clouds FEW006 73 64 74% 29.95 1014.1
13 13:51 SW 8 6.00 Fair with Haze CLR 75 63 66% 77 29.95 1014.1
13 12:51 SW 10 6.00 Fair with Haze CLR 73 63 71% 29.96 1014.4
13 11:51 S 9 6.00 Fair with Haze CLR 73.9 63 69% 29.99 1015.4
13 10:51 Vrbl 5 7.00 Mostly Cloudy BKN017 73 63 73 64.9 71% 29.99 1015.4
13 09:51 Calm 6.00 Overcast with Haze OVC011 70 62.1 76% 29.98 1014.9
13 08:51 E 3 6.00 Overcast with Haze OVC009 66.9 62.1 84% 29.97 1014.5
13 07:51 Calm 6.00 Fog/Mist OVC007 66 62.1 87% 29.95 1014.2
13 06:51 SE 3 6.00 Fog/Mist OVC006 64.9 62.1 90% 29.94 1013.6
13 05:51 Calm 8.00 Overcast OVC005 64.9 62.1 90% 29.92 1013.1
13 04:51 SW 5 10.00 Overcast OVC005 64.9 62.1 66 64.9 90% 29.92 1012.8
13 03:51 Calm 10.00 Overcast OVC006 64.9 62.1 90% 29.9 1012.3
13 02:51 S 5 10.00 Mostly Cloudy BKN007 66 62.1 87% 29.89 1012.0
13 01:51 Calm 9.00 Mostly Cloudy BKN006 66 62.1 87% 29.88 1011.6
13 00:51 SW 5 10.00 Overcast OVC006 66 62.1 87% 29.89 1012.0
12 23:51 Calm 8.00 Overcast OVC006 66 62.1 87% 29.89 1011.9
Date Time (pdt) Wind (mph) Vis. (mi.) Weather Sky Cond. Air Dwpt Max. Min. Relative Humidity Wind Chill (°F) Heat Index (°F) altimeter (in) sea level (mb) 1 hr 3 hr 6 hr
6 hour
Temperature (ºF) Pressure Precipitation (in)